{"data":{"norad_id":66567,"epoch":"2026-05-25T01:32:57.660000Z","epoch_age_seconds":65365,"freshness":"FRESH","line1":"1 66567U 25268L   26145.06455625  .00014112  00000+0  52113-3 0  9997","line2":"2 66567  43.0012 275.4471 0002862 266.2161  93.8364 15.27593449 29647","mean_motion":15.27593449,"eccentricity":0.0002862,"inclination_deg":43.0012,"raan_deg":275.4471,"arg_perigee_deg":266.2161,"mean_anomaly_deg":93.8364,"bstar":0.00052113,"rev_number":2964,"period_min":94.265918785044,"perigee_km":481.04516525569,"apogee_km":484.97248512603,"semimajor_km":6861.1458251909,"source":"CELESTRAK","updated_at":"2026-05-25T13:38:21.280266Z"}}